Location: Izdebnik
(49.8699°N, 19.7619°E)
Time: 04:16:13
(UTC+01:00)

ISS - Pass Details

Date: 01 February 2019
Orbit: 403 x 411 km, 51.6° (Epoch: 21 February)

Event Time Altitude Azimuth Distance (km) Brightness Sun altitude
Rises 17:18:27 0° 267° (W) 2,332 1.9 -7.3°
Reaches altitude 10° 17:20:33 10° 271° (W) 1,473 0.4 -7.7°
Maximum altitude 17:23:50 65° 353° (N) 456 -3.6 -8.2°
Enters shadow 17:26:50 12° 76° (ENE) 1,359 -1.9 -8.6°
